Weather History for Banff, AB

Change the Weather History Date:

Monday, May 27, 2013

  Actual Average Record
Temperature  
Mean Temperature 45 °F -  
Max Temperature 60 °F - - ()
Min Temperature 30 °F - - ()
Degree Days  
Heating Degree Days 20    
Moisture  
Dew Point 34 °F    
Average Humidity 68    
Maximum Humidity 100    
Minimum Humidity 30    
Precipitation  
Precipitation 0.05 in - - ()
Sea Level Pressure  
Sea Level Pressure 29.89 in    
Wind  
Wind Speed 2 mph ()    
Max Wind Speed 8 mph    
Max Gust Speed -    
T = Trace of Precipitation, MM = Missing Value Source: Averaged Metar Reports

Daily Weather History Graph

Daily Weather History Graph

Search for Another Location

Airport:

Trip Planner

Search our weather history database for the weather conditions in past years. The results will help you decide how hot, cold, wet, or windy it might be!

Date:

Astronomy

May. 27, 2013 Rise Set
Actual Time 5:36 AM MDT 9:43 PM MDT
Civil Twilight 4:52 AM MDT 10:27 PM MDT
Nautical Twilight 3:49 AM MDT 11:30 PM MDT
Astronomical Twilight 2:11 AM MDT 1:07 AM MDT
Moon No Moon Rise 8:24 AM MDT (5/27)
Length of Visible Light 17h 34m
Length of Day
16h 06m
Waning Gibbous, 90% of the Moon is Illuminated
May 27
Waning Gibbous
May 31
Last Quarter
Jun 8
New
Jun 16
First Quarter
Jun 23
Full

Hourly Weather History & Observations

Time (MDT) Temp. Windchill Dew Point Humidity Pressure Visibility Wind Dir Wind Speed Gust Speed Precip Events Conditions
12:00 AM 39.7 °F - 34.0 °F 80% 29.96 in - North 1.2 mph - N/A   Unknown
1:00 AM 36.9 °F - 34.3 °F 91% 29.98 in - Calm Calm - N/A   Unknown
2:00 AM 34.5 °F - 32.9 °F 94% 29.98 in - NNW 1.2 mph - N/A   Unknown
3:00 AM 35.8 °F - 34.2 °F 94% 29.97 in - WNW 2.3 mph - N/A   Unknown
4:00 AM 30.9 °F - 30.4 °F 98% 29.99 in - NE 1.2 mph - N/A   Unknown
5:00 AM 31.8 °F - 31.3 °F 98% 29.98 in - NNE 1.2 mph - N/A   Unknown
6:00 AM 31.8 °F 28.5 °F 32.0 °F 100% 29.98 in - SW 3.5 mph - N/A   Unknown
7:00 AM 34.3 °F 31.4 °F 32.9 °F 94% 29.96 in - WSW 3.5 mph - N/A   Unknown
8:00 AM 38.3 °F 34.8 °F 33.4 °F 83% 29.96 in - SW 4.6 mph - N/A   Unknown
9:00 AM 43.2 °F 40.5 °F 33.8 °F 70% 29.94 in - SW 4.6 mph - N/A   Unknown
10:00 AM 48.7 °F - 34.7 °F 58% 29.91 in - SW 3.5 mph - N/A   Unknown
11:00 AM 56.5 °F - 35.8 °F 46% 29.87 in - South 2.3 mph - N/A   Unknown
12:00 PM 56.1 °F - 31.3 °F 39% 29.86 in - North 3.5 mph - N/A   Unknown
1:00 PM 57.6 °F - 30.4 °F 36% 29.85 in - SW 2.3 mph - N/A   Unknown
2:00 PM 60.8 °F - 31.1 °F 33% 29.81 in - SW 5.8 mph - N/A   Unknown
3:00 PM 59.9 °F - 28.4 °F 30% 29.82 in - WSW 2.3 mph - N/A   Unknown
4:00 PM 60.4 °F - 32.0 °F 34% 29.81 in - SW 5.8 mph - N/A   Unknown
5:00 PM 55.2 °F - 40.6 °F 58% 29.83 in - NE 8.1 mph - 0.02 in   Unknown
6:00 PM 57.0 °F - 35.4 °F 44% 29.81 in - NNE 6.9 mph - N/A   Unknown
7:00 PM 52.9 °F - 39.6 °F 61% 29.83 in - SSW 4.6 mph - 0.03 in   Unknown
8:00 PM 52.0 °F - 38.5 °F 60% 29.81 in - North 4.6 mph - N/A   Unknown
9:00 PM 49.3 °F - 40.3 °F 71% 29.80 in - North 2.3 mph - N/A   Unknown
10:00 PM 47.1 °F - 39.7 °F 76% 29.78 in - NE 2.3 mph - N/A   Unknown
11:00 PM 46.2 °F - 40.5 °F 80% 29.79 in - NNW 2.3 mph - N/A   Unknown